GW3447 Weather Reports


time (UTC)temp
C
wind
direction
speed
KPH
gust
KPH
rain 1hr
cm
rain 24hr
cm
rain mn
cm
humidity
%
barometer
mb
20260505122547 11 213 11.3 16.1 0.00 0.00 0.00 93 1013.9
20260505122047 11 200 11.3 16.1 0.00 0.00 0.00 93 1013.8
20260505121547 11 217 11.3 16.1 0.00 0.00 0.00 93 1013.9
20260505121046 11 165 8.0 19.3 0.00 0.00 0.00 93 1013.6
20260505120544 11 186 14.5 19.3 0.00 0.00 0.00 93 1013.7
20260505120046 11 212 11.3 17.7 0.00 0.00 0.00 93 1013.6
20260505115543 11 190 12.9 17.7 0.00 0.00 0.00 93 1013.5
20260505115042 11 202 9.7 17.7 0.00 0.00 0.00 94 1013.6
20260505114601 11 180 14.5 17.7 0.00 0.00 0.00 93 1013.5
20260505114040 11 222 11.3 17.7 0.00 0.00 0.00 94 1013.5
20260505113543 11 199 12.9 17.7 0.00 0.00 0.00 94 1013.5
20260505113040 11 170 12.9 16.1 0.00 0.00 0.00 94 1013.5
20260505112537 11 188 12.9 17.7 0.00 0.00 0.00 94 1013.4
20260505112036 11 195 11.3 16.1 0.00 0.00 0.00 94 1013.4
20260505111553 11 204 9.7 16.1 0.00 0.00 0.00 94 1013.4
20260505111036 11 190 9.7 19.3 0.00 0.00 0.00 94 1013.4
20260505110535 11 213 9.7 19.3 0.00 0.00 0.00 94 1013.4
20260505102028 11 197 9.7 16.1 0.00 0.00 0.00 94 1013.1
20260505101533 11 184 9.7 16.1 0.00 0.00 0.00 94 1013.1
20260505101028 11 201 11.3 17.7 0.00 0.00 0.00 94 1013.1
20260505100527 11 197 11.3 16.1 0.00 0.00 0.00 94 1013.1
20260505100030 11 207 11.3 16.1 0.00 0.00 0.00 94 1013.1
20260505095530 11 192 11.3 16.1 0.00 0.00 0.00 94 1013.0
20260505095124 11 207 9.7 14.5 0.00 0.00 0.00 94 1012.9
20260505094524 11 202 9.7 14.5 0.00 0.00 0.00 94 1012.9
20260505094027 11 194 9.7 14.5 0.00 0.00 0.00 94 1012.9
20260505093523 11 194 8.0 14.5 0.00 0.00 0.00 94 1012.7
20260505093027 11 207 9.7 14.5 0.00 0.00 0.00 94 1012.6
20260505092521 11 190 9.7 16.1 0.00 0.00 0.00 94 1012.5
20260505092021 11 205 9.7 14.5 0.00 0.00 0.00 94 1012.5
20260505091520 11 207 9.7 14.5 0.00 0.00 0.00 93 1012.4
20260505091018 11 194 9.7 16.1 0.00 0.00 0.00 93 1012.5
20260505090518 11 203 9.7 16.1 0.00 0.00 0.00 93 1012.4
20260505090017 11 195 9.7 16.1 0.00 0.00 0.00 93 1012.5
20260505085517 11 192 9.7 14.5 0.00 0.00 0.00 93 1012.5
20260505085017 11 185 9.7 16.1 0.00 0.00 0.00 93 1012.5
20260505084518 11 214 11.3 16.1 0.00 0.00 0.00 93 1012.6
20260505084013 11 211 8.0 16.1 0.00 0.00 0.00 93 1012.5
20260505083514 11 208 9.7 16.1 0.00 0.00 0.00 93 1012.5
20260505083015 11 194 8.0 16.1 0.00 0.00 0.00 93 1012.3
20260505082514 11 199 9.7 16.1 0.00 0.00 0.00 93 1012.2
20260505082012 11 186 8.0 16.1 0.00 0.00 0.00 93 1012.2
20260505081516 11 194 9.7 16.1 0.00 0.00 0.00 93 1012.1
20260505081018 11 205 11.3 16.1 0.00 0.00 0.00 93 1012.1
20260505080513 12 176 11.3 16.1 0.00 0.00 0.00 93 1012.1
20260505080026 12 230 8.0 16.1 0.00 0.00 0.00 93 1012.1
20260505075508 12 223 9.7 16.1 0.00 0.00 0.00 93 1012.1
20260505075012 12 205 11.3 16.1 0.00 0.00 0.00 93 1012.1
20260505074506 11 192 9.7 16.1 0.00 0.00 0.00 93 1012.0
20260505074005 11 215 9.7 16.1 0.00 0.00 0.00 92 1011.9
20260505073504 11 201 8.0 16.1 0.00 0.00 0.00 92 1011.8
20260505073003 12 196 9.7 16.1 0.00 0.00 0.00 92 1011.8
20260505072501 12 193 11.3 16.1 0.00 0.00 0.00 92 1011.8
20260505072001 12 188 9.7 14.5 0.00 0.00 0.00 92 1011.8
20260505071604 12 193 8.0 12.9 0.00 0.00 0.00 91 1011.7
20260505071059 12 200 8.0 12.9 0.00 0.00 0.00 91 1011.6
20260505070558 12 211 8.0 11.3 0.00 0.00 0.00 91 1011.6
20260505070057 12 199 8.0 11.3 0.00 0.00 0.00 91 1011.5
20260505065555 12 199 6.4 9.7 0.00 0.00 0.00 90 1011.5
20260505065059 12 202 6.4 9.7 0.00 0.00 0.00 90 1011.5
20260505064602 12 205 4.8 9.7 0.00 0.00 0.00 89 1011.4
20260505064055 12 190 4.8 9.7 0.00 0.00 0.00 89 1011.4
20260505063557 13 188 4.8 9.7 0.00 0.00 0.00 88 1011.5
20260505063056 13 197 0.0 4.8 0.00 0.00 0.00 87 1011.5
20260505062553 13 204 1.6 8.0 0.00 0.00 0.00 87 1011.4
20260505062052 13 84 3.2 11.3 0.00 0.00 0.00 86 1011.4
20260505061555 13 202 8.0 11.3 0.00 0.00 0.00 86 1011.3
20260505061051 13 186 3.2 9.7 0.00 0.00 0.00 86 1011.3
20260505060551 13 198 3.2 9.7 0.00 0.00 0.00 85 1011.2
20260505060050 13 162 3.2 9.7 0.00 0.00 0.00 85 1011.2
20260505055550 13 202 4.8 9.7 0.00 0.00 0.00 84 1011.1
20260505055053 13 192 0.0 4.8 0.00 0.00 0.00 85 1010.9
20260505054558 13 187 0.0 3.2 0.00 0.00 0.00 84 1010.9
20260505054047 14 185 0.0 8.0 0.00 0.00 0.00 83 1010.9
20260505053547 14 61 0.0 8.0 0.00 0.00 0.00 82 1010.9
20260505053058 15 35 0.0 4.8 0.00 0.00 0.00 81 1010.7
20260505052546 15 34 3.2 4.8 0.00 0.00 0.00 81 1010.7
20260505052048 15 34 1.6 3.2 0.00 0.00 0.00 81 1010.7
20260505051546 15 34 0.0 3.2 0.00 0.00 0.00 80 1010.7
20260505051045 15 34 0.0 0.0 0.00 0.00 0.00 81 1010.6
20260505050544 15 34 0.0 0.0 0.00 0.00 0.00 81 1010.5
20260505041607 16 34 1.6 6.4 0.00 0.00 0.00 77 1009.9
20260505041043 16 38 3.2 4.8 0.00 0.00 0.00 77 1009.8
20260505040543 16 360 1.6 3.2 0.00 0.00 0.00 75 1009.8
20260505040044 17 5 1.6 3.2 0.00 0.00 0.00 73 1009.6
20260505035543 17 9 1.6 4.8 0.00 0.00 0.00 71 1009.5
20260505035045 17 9 3.2 4.8 0.00 0.00 0.00 71 1009.5
20260505034545 17 9 3.2 4.8 0.00 0.00 0.00 71 1009.4
20260505034043 17 5 1.6 3.2 0.00 0.00 0.00 70 1009.4
20260505033542 17 5 1.6 3.2 0.00 0.00 0.00 70 1009.5
20260505033042 17 5 1.6 4.8 0.00 0.00 0.00 71 1009.4
20260505032545 17 5 1.6 4.8 0.00 0.00 0.00 70 1009.3
20260505032041 17 5 1.6 4.8 0.00 0.00 0.00 69 1009.5
20260505031540 17 5 1.6 3.2 0.00 0.00 0.00 70 1009.3
20260505031044 17 5 0.0 1.6 0.00 0.00 0.00 72 1009.3
20260505030543 17 5 0.0 1.6 0.00 0.00 0.00 69 1009.3
20260505030041 17 5 0.0 1.6 0.00 0.00 0.00 70 1009.3
20260505025541 18 5 0.0 1.6 0.00 0.00 0.00 70 1009.3
20260505025041 18 5 0.0 3.2 0.00 0.00 0.00 69 1009.2
20260505024545 18 5 0.0 3.2 0.00 0.00 0.00 67 1009.2
20260505024039 18 5 0.0 3.2 0.00 0.00 0.00 69 1009.2
20260505023539 18 5 0.0 3.2 0.00 0.00 0.00 70 1009.1
20260505023045 18 5 1.6 3.2 0.00 0.00 0.00 68 1009.1
20260505022539 18 5 1.6 3.2 0.00 0.00 0.00 65 1009.1
20260505022039 18 5 0.0 3.2 0.00 0.00 0.00 67 1009.2
20260505021544 18 5 0.0 3.2 0.00 0.00 0.00 68 1009.1
20260505021039 19 5 0.0 3.2 0.00 0.00 0.00 66 1009.2
20260505020539 19 5 0.0 3.2 0.00 0.00 0.00 63 1009.2
20260505020039 19 53 0.0 4.8 0.00 0.00 0.00 65 1009.2
20260505015542 20 317 0.0 4.8 0.00 0.00 0.00 61 1009.2
20260505015039 20 128 0.0 4.8 0.00 0.00 0.00 68 1009.3
20260505014542 20 333 0.0 4.8 0.00 0.00 0.00 68 1009.2
20260505014038 20 342 0.0 3.2 0.00 0.00 0.00 67 1009.3
20260505013537 20 342 0.0 4.8 0.00 0.00 0.00 64 1009.3
20260505013038 20 340 1.6 4.8 0.00 0.00 0.00 62 1009.3
20260505012538 20 291 0.0 4.8 0.00 0.00 0.00 62 1009.4
20260505012037 20 296 0.0 3.2 0.00 0.00 0.00 62 1009.3
20260505011538 20 295 0.0 4.8 0.00 0.00 0.00 66 1009.4
20260505011037 20 294 0.0 4.8 0.00 0.00 0.00 68 1009.4
20260505010537 20 313 1.6 4.8 0.00 0.00 0.00 68 1009.4
20260505010042 20 13 1.6 4.8 0.00 0.00 0.00 67 1009.4
20260505005537 20 267 0.0 6.4 0.00 0.00 0.00 65 1009.5
20260505005037 20 333 1.6 6.4 0.00 0.00 0.00 65 1009.4
20260505004536 20 344 1.6 6.4 0.00 0.00 0.00 68 1009.3
20260505004035 21 310 0.0 3.2 0.00 0.00 0.00 69 1009.4
20260505003535 21 309 0.0 3.2 0.00 0.00 0.00 68 1009.4
20260505003036 21 309 0.0 3.2 0.00 0.00 0.00 67 1009.3
20260505002536 21 338 0.0 3.2 0.00 0.00 0.00 65 1009.4
20260505002036 22 338 0.0 4.8 0.00 0.00 0.00 63 1009.4
20260505001547 21 209 1.6 4.8 0.00 0.00 0.00 62 1009.4
20260505001035 22 209 1.6 4.8 0.00 0.00 0.00 60 1009.4
20260505000535 22 209 3.2 4.8 0.00 0.00 0.00 58 1009.4
20260505000041 22 210 0.0 3.2 0.00 0.00 0.00 57 1009.4
20260504235535 22 210 1.6 4.8 0.00 0.00 0.00 59 1009.4
20260504235035 22 205 1.6 8.0 0.00 0.00 0.00 64 1009.5
20260504234534 22 209 3.2 8.0 0.00 0.00 0.00 61 1009.5
20260504234034 22 202 1.6 6.4 0.00 0.00 0.00 59 1009.5
20260504233536 22 208 1.6 6.4 0.00 0.00 0.00 66 1009.4
20260504233036 22 224 3.2 6.4 0.00 0.00 0.00 62 1009.5
20260504232533 22 195 1.6 4.8 0.00 0.00 0.00 64 1009.7
20260504232033 22 194 1.6 8.0 0.00 0.00 0.00 64 1009.6
20260504231548 22 195 3.2 8.0 0.00 0.00 0.00 59 1009.5
20260504231034 22 207 3.2 9.7 0.00 0.00 0.00 65 1009.5
20260504230534 22 198 4.8 9.7 0.00 0.00 0.00 62 1009.5
20260504230034 22 195 3.2 8.0 0.00 0.00 0.00 61 1009.6
20260504225532 22 103 1.6 8.0 0.00 0.00 0.00 62 1009.6
20260504225032 22 196 3.2 6.4 0.00 0.00 0.00 66 1009.6
20260504224537 22 203 1.6 6.4 0.00 0.00 0.00 62 1009.6
20260504224032 22 205 1.6 8.0 0.00 0.00 0.00 64 1009.7
20260504223536 22 198 3.2 8.0 0.00 0.00 0.00 62 1009.7
20260504223031 22 197 3.2 6.4 0.00 0.00 0.00 64 1009.8
20260504222531 22 206 3.2 6.4 0.00 0.00 0.00 64 1009.8
20260504222030 22 203 3.2 8.0 0.00 0.00 0.00 64 1009.8
20260504221531 22 207 3.2 8.0 0.00 0.00 0.00 64 1009.9
20260504221030 22 117 1.6 6.4 0.00 0.00 0.00 63 1010.0
20260504220529 21 119 1.6 9.7 0.00 0.00 0.00 64 1010.1
20260504220033 21 199 4.8 9.7 0.00 0.00 0.00 66 1010.2
20260504215529 21 120 3.2 8.0 0.00 0.00 0.00 65 1010.1
20260504215030 21 138 3.2 8.0 0.00 0.00 0.00 66 1010.3
20260504214527 20 198 4.8 8.0 0.00 0.00 0.00 66 1010.2
20260504214030 21 194 3.2 6.4 0.00 0.00 0.00 65 1010.2
20260504213525 21 100 1.6 6.4 0.00 0.00 0.00 66 1010.3
20260504213026 21 198 1.6 8.0 0.00 0.00 0.00 65 1010.3
20260504212527 21 200 1.6 6.4 0.00 0.00 0.00 67 1010.3
20260504212024 21 192 3.2 4.8 0.00 0.00 0.00 62 1010.3
20260504211528 20 193 1.6 4.8 0.00 0.00 0.00 61 1010.4
20260504211024 21 207 0.0 4.8 0.00 0.00 0.00 68 1010.5
20260504210527 20 134 0.0 4.8 0.00 0.00 0.00 66 1010.4
20260504210027 20 111 1.6 4.8 0.00 0.00 0.00 69 1010.5
20260504205525 20 137 0.0 3.2 0.00 0.00 0.00 68 1010.6
20260504205024 20 165 1.6 6.4 0.00 0.00 0.00 69 1010.4
20260504204524 20 177 3.2 6.4 0.00 0.00 0.00 65 1010.5
20260504204023 20 178 0.0 4.8 0.00 0.00 0.00 63 1010.5
20260504203523 21 180 1.6 4.8 0.00 0.00 0.00 63 1010.5
20260504203030 21 171 1.6 4.8 0.00 0.00 0.00 54 1010.5
20260504202522 21 126 1.6 4.8 0.00 0.00 0.00 64 1010.5
20260504202021 21 187 1.6 4.8 0.00 0.00 0.00 61 1010.6
20260504201521 20 134 1.6 4.8 0.00 0.00 0.00 65 1010.6
20260504201021 21 183 1.6 4.8 0.00 0.00 0.00 59 1010.6
20260504200521 21 161 0.0 4.8 0.00 0.00 0.00 61 1010.7
20260504200021 20 178 1.6 6.4 0.00 0.00 0.00 65 1010.7
20260504195520 20 198 1.6 6.4 0.00 0.00 0.00 61 1010.8
20260504195021 21 187 1.6 4.8 0.00 0.00 0.00 65 1010.7
20260504194531 21 194 1.6 4.8 0.00 0.00 0.00 63 1010.6
20260504194019 20 165 1.6 3.2 0.00 0.00 0.00 64 1010.6
20260504193517 20 165 1.6 3.2 0.00 0.00 0.00 64 1010.7
20260504193019 20 172 0.0 4.8 0.00 0.00 0.00 67 1010.7
20260504192515 20 174 1.6 4.8 0.00 0.00 0.00 63 1010.6
20260504192016 19 152 0.0 4.8 0.00 0.00 0.00 67 1010.7
20260504191514 19 165 1.6 4.8 0.00 0.00 0.00 68 1010.7
20260504191013 19 139 0.0 4.8 0.00 0.00 0.00 69 1010.7
20260504190513 19 132 1.6 4.8 0.00 0.00 0.00 65 1010.7
20260504190012 19 203 3.2 4.8 0.00 0.00 0.00 68 1010.7
20260504185513 18 173 1.6 4.8 0.00 0.00 0.00 71 1010.8
20260504185010 18 191 1.6 4.8 0.00 0.00 0.00 73 1010.8
20260504184512 18 190 1.6 4.8 0.00 0.00 0.00 70 1010.8
20260504184011 18 203 1.6 4.8 0.00 0.00 0.00 68 1011.0
20260504183509 18 174 0.0 4.8 0.00 0.00 0.00 70 1011.1
20260504183008 18 144 1.6 4.8 0.00 0.00 0.00 67 1011.0
20260504182509 18 163 1.6 4.8 0.00 0.00 0.00 68 1011.1
20260504182007 18 209 1.6 4.8 0.00 0.00 0.00 69 1011.0
20260504181508 18 113 1.6 4.8 0.00 0.00 0.00 72 1011.0
20260504181010 17 144 1.6 6.4 0.00 0.00 0.00 73 1011.1
20260504180506 17 205 3.2 6.4 0.00 0.00 0.00 71 1011.0
20260504180012 17 213 3.2 6.4 0.00 0.00 0.00 69 1010.9
20260504175505 17 184 3.2 6.4 0.00 0.00 0.00 70 1010.8
20260504175005 17 178 0.0 6.4 0.00 0.00 0.00 71 1010.7
20260504174503 17 201 1.6 6.4 0.00 0.00 0.00 69 1010.8
20260504174002 17 175 0.0 3.2 0.00 0.00 0.00 69 1010.8
20260504173502 16 196 0.0 3.2 0.00 0.00 0.00 70 1010.8
20260504173123 16 196 1.6 4.8 0.00 0.00 0.00 71 1010.8
20260504172558 16 196 1.6 4.8 0.00 0.00 0.00 75 1010.9
20260504172058 16 189 0.0 4.8 0.00 0.00 0.00 78 1010.8
20260504171557 16 186 1.6 4.8 0.00 0.00 0.00 77 1010.9
20260504171057 16 192 1.6 4.8 0.00 0.00 0.00 74 1010.9
20260504170556 15 178 0.0 3.2 0.00 0.00 0.00 73 1010.9
20260504151042 13 163 1.6 4.8 0.00 0.00 0.00 87 1010.2
20260504150545 13 162 0.0 4.8 0.00 0.00 0.00 88 1010.2
20260504141034 12 287 0.0 0.0 0.00 0.00 0.00 84 1009.7
20260504140534 12 287 0.0 0.0 0.00 0.00 0.00 84 1009.7
20260504130529 12 287 1.6 3.2 0.00 0.00 0.00 81 1009.4